Milford, UT

1:06 AM MDT on July 27, 2016 (GMT -0600)
Milford Municipal

Weather History for KMLF - December, 2013

Change the Weather History Date:

Thursday, December 5, 2013

  Actual Average Record
Temperature  
Mean Temperature -7 °F -  
Max Temperature 9 °F 41 °F 60 °F (2012)
Min Temperature -23 °F 19 °F -23 °F (2013)
Degree Days  
Heating Degree Days 72    
Moisture  
Dew Point -15 °F    
Average Humidity 80    
Maximum Humidity 91    
Minimum Humidity 69    
Precipitation  
Precipitation 0.00 in - - ()
Sea Level Pressure  
Sea Level Pressure 30.34 in    
Wind  
Wind Speed 6 mph (SW)    
Max Wind Speed 9 mph    
Max Gust Speed -    
Visibility 10 miles    
Events Snow    
Averages and records for this station are not official NWS values.
T = Trace of Precipitation, MM = Missing Value Source: NWS Daily Summary

Daily Weather History Graph

Daily Weather History Graph

Search for Another Location

Airport or City:

Trip Planner

Search our weather history database for the weather conditions in past years. The results will help you decide how hot, cold, wet, or windy it might be!

Date:

Astronomy

Dec. 05, 2013 Rise Set
Actual Time 7:34 AM MST 5:11 PM MST
Civil Twilight 7:04 AM MST 5:40 PM MST
Nautical Twilight 6:32 AM MST 6:13 PM MST
Astronomical Twilight 5:59 AM MST 6:45 PM MST
Moon 9:58 AM MST (12/5) 8:35 PM MST (12/5)
Length of Visible Light 10h 35m
Length of Day
9h 36m
Waxing Crescent, 11% of the Moon is Illuminated
Dec 5
Waxing Crescent
Dec 9
First Quarter
Dec 17
Full
Dec 25
Last Quarter
Jan 1
New

Hourly Weather History & Observations

Time (MST) Temp. Windchill Dew Point Humidity Pressure Visibility Wind Dir Wind Speed Gust Speed Precip Events Conditions
12:52 AM -9.0 °F -23.8 °F -14.1 °F 79% 30.23 in 10.0 mi WSW 6.9 mph - N/A   Clear
4:52 AM -16.1 °F -30.6 °F -20.0 °F 82% 30.27 in 10.0 mi West 5.8 mph - N/A   Clear
5:52 AM -20.0 °F -39.9 °F -24.0 °F 82% 30.30 in 10.0 mi SSW 9.2 mph - N/A   Clear
6:09 AM -18.0 °F -37.5 °F -20.9 °F 87% 29.97 in 10.0 mi SW 9.2 mph - N/A   Partly Cloudy
6:52 AM -22.0 °F -39.4 °F -27.0 °F 77% 30.34 in 9.0 mi South 6.9 mph - N/A   Clear
7:52 AM -22.0 °F -42.3 °F -25.1 °F 86% 30.38 in 10.0 mi SSW 9.2 mph - N/A   Clear
8:52 AM -18.9 °F -37.2 °F -22.0 °F 86% 30.38 in 10.0 mi SSW 8.1 mph - N/A   Clear
9:52 AM -17.0 °F -29.7 °F -18.9 °F 91% 30.38 in 10.0 mi SSW 4.6 mph - N/A   Clear
10:52 AM -9.0 °F -18.2 °F -11.0 °F 91% 30.37 in 10.0 mi South 3.5 mph - N/A   Clear
11:52 AM -6.0 °F -20.1 °F -11.0 °F 79% 30.35 in 10.0 mi SSW 6.9 mph - N/A   Clear
12:52 PM -0.9 °F -12.7 °F -6.0 °F 79% 30.30 in 10.0 mi South 5.8 mph - N/A   Clear
1:52 PM 1.9 °F -5.6 °F -2.9 °F 80% 30.30 in 10.0 mi South 3.5 mph - N/A   Clear
2:52 PM 6.1 °F - -0.9 °F 73% 30.28 in 10.0 mi Calm Calm - N/A   Clear
3:52 PM 3.9 °F -6.9 °F -2.9 °F 73% 30.30 in 9.0 mi North 5.8 mph - 0.00 in Snow Light Snow
4:52 PM -2.0 °F -13.9 °F -7.1 °F 79% 30.33 in 10.0 mi North 5.8 mph - 0.00 in   Clear
5:52 PM -8.0 °F -22.5 °F -11.9 °F 83% 30.38 in 10.0 mi NNW 6.9 mph - N/A   Clear
6:52 PM -9.9 °F - -15.0 °F 78% 30.40 in 10.0 mi Calm Calm - N/A   Clear
7:52 PM -11.9 °F -21.5 °F -16.1 °F 82% 30.43 in 10.0 mi West 3.5 mph - N/A   Clear
8:52 PM -9.9 °F - -13.0 °F 86% 30.41 in 10.0 mi Calm Calm - N/A   Clear
9:52 PM -11.9 °F -27.3 °F -16.1 °F 82% 30.43 in 10.0 mi West 6.9 mph - N/A   Clear
10:52 PM -13.0 °F -28.6 °F -17.0 °F 82% 30.41 in 10.0 mi West 6.9 mph - N/A   Clear
11:52 PM -15.0 °F -32.4 °F -18.9 °F 82% 30.41 in 10.0 mi SSW 8.1 mph - N/A   Clear